Temp_Advection
nan nan nan nan nan nan nan nan nan nan nan nan nan nan nan nan nan nan nan nan nan nan nan nan nan nan nan nan nan nan nan nan nan nan nan nan nan nan nan nan nan nan nan nan nan nan nan nan nan
nan 0 0 -0 -0 0 -0 -0 -0 -0 -0 -1 -1 0 0 0 0 -0 -0 -0 -0 0 0 0 0 0 0 0 0 0 0 0 0 0 0 -0 -0 0 0 0 -0 -0 -0 -0 -0 -1 -0 -0 nan
nan 0 -0 -0 0 -0 -0 -0 -0 -1 -1 -0 -0 -1 0 -0 -0 -0 -0 -0 -0 -0 0 0 0 0 0 0 0 0 0 0 0 0 0 0 -0 0 0 -0 0 -0 0 -0 -0 -0 -0 -0 nan
nan 0 -0 -0 -0 -0 -0 -0 -0 -0 -1 0 -0 -0 -0 -0 -0 -0 -0 -0 -0 -0 0 0 0 0 0 0 -0 -0 0 0 0 0 0 0 0 0 0 -0 -0 0 0 0 -0 -0 -0 -0 nan
nan -0 0 0 -0 -0 -0 -0 -0 -0 -1 -1 -1 -0 -0 -0 0 0 0 -0 -0 -0 0 0 0 0 0 -0 -0 -0 0 0 0 0 0 0 0 0 0 -0 -0 0 0 0 0 -0 -0 -0 nan
nan 0 -0 -0 -0 -0 -0 -1 0 -0 -1 -0 -0 -0 -0 -0 0 0 1 0 0 0 -0 0 0 0 0 0 0 0 0 0 0 0 0 0 0 0 0 -0 -0 -0 0 0 0 -0 -0 -0 nan
nan -0 -0 -0 -0 -0 -0 -0 0 -0 -0 -0 -0 -0 -1 -1 0 0 0 0 0 0 -0 0 0 -0 0 0 0 1 0 0 0 0 0 0 0 0 0 0 0 0 0 0 0 0 -0 -0 nan
nan -0 0 -0 -0 -1 -0 -0 -0 -0 -0 -1 -0 0 -1 -2 -0 0 0 0 0 0 0 -0 -0 -0 0 0 0 0 0 0 0 0 0 0 1 0 0 0 0 0 0 0 0 0 0 0 nan
nan -0 -0 -0 -0 -0 -0 -0 -0 -0 -0 -1 -0 -0 -0 -1 -0 0 -0 0 0 0 0 0 0 0 0 0 0 0 0 0 0 0 0 0 0 1 0 1 1 -0 -0 0 0 0 0 -0 nan
nan 0 -1 -0 0 -0 -0 -0 -1 -0 -1 -1 -1 -1 -0 -0 -0 -0 -0 0 -0 -0 0 0 0 1 0 0 0 0 0 0 0 0 0 1 0 0 0 1 1 1 0 0 0 0 -0 -0 nan
nan -0 -0 -0 -0 -0 -0 -0 -0 -0 -0 -0 -0 -1 -1 -1 -1 -1 -0 -0 -0 0 0 0 0 0 0 0 -0 -0 -0 0 0 -0 0 0 -0 -0 0 0 -0 1 0 0 -0 0 0 -0 nan
nan -0 -0 -0 -0 -0 -0 -0 -0 -0 -0 -1 -1 -0 -1 -1 -1 -1 -0 -1 -0 0 1 1 0 0 0 0 -0 -1 -0 0 -0 0 1 -0 -0 -0 0 0 -0 -0 -0 -0 -0 0 0 0 nan
nan -0 -0 -0 -0 -0 -0 -0 -0 -1 -1 -1 -1 -0 -0 -1 -1 -0 -0 -0 -0 0 0 0 0 0 0 -0 -0 -1 0 1 1 0 0 -0 -0 0 0 0 -0 -0 -1 0 0 0 -0 0 nan
nan -0 -0 -0 -0 -0 -0 -0 -0 -1 -1 -0 -0 -0 -0 -0 -1 -1 -0 -0 -0 0 0 -0 -0 0 0 0 -0 -0 -0 0 1 1 -0 -0 0 0 0 -1 -0 -1 -0 0 0 0 0 0 nan
nan 0 -0 -0 -0 -0 -0 0 -1 -1 -0 -0 -1 -1 -0 -0 -0 -1 -0 -0 -0 -0 -0 -0 0 0 -0 -0 -0 0 0 1 1 1 0 0 1 -0 -0 -0 -1 -2 0 0 0 0 0 0 nan
nan -0 -0 -0 -0 -0 -0 -0 -1 -1 0 0 -1 -1 -0 -0 -1 -1 -0 -0 -0 -0 -0 -0 0 0 0 -0 -0 0 2 1 -1 2 1 1 0 0 0 -1 -1 -0 0 0 0 0 0 0 nan
nan 0 -0 -1 -0 0 0 -0 -0 -0 0 0 -0 -0 -0 -0 -1 -1 -1 -0 -0 -0 -0 0 0 0 0 0 1 1 1 -2 -0 2 1 0 1 1 -0 -0 0 1 0 -0 0 0 0 0 nan
nan 0 -0 -0 -0 -0 0 -1 -1 -0 0 -0 -1 -0 -0 -0 -1 -1 -1 -0 -0 0 -0 0 0 1 1 1 0 1 -0 -1 1 0 0 0 -0 -0 -0 1 0 1 -0 -0 0 0 0 0 nan
nan -0 -0 -1 -0 0 -0 -0 -1 -0 0 -0 -1 -1 -0 -1 -1 -1 -0 -0 0 0 -0 0 0 0 1 -0 0 -0 -1 1 1 1 0 -0 -0 -0 0 0 0 -0 -0 0 0 0 0 0 nan
nan -0 -0 -0 0 -0 -0 -0 -1 0 0 -1 -0 0 -0 -2 -1 -0 -1 -0 -0 -0 0 1 0 1 0 -0 1 -0 0 0 0 0 1 1 0 -0 0 0 -0 -0 -0 -0 0 0 0 0 nan
nan 0 0 -0 -0 0 0 -0 -0 -0 -0 0 -0 -0 -0 -1 -1 -1 -0 -0 0 0 0 0 0 1 0 1 1 1 0 -0 -0 -0 1 1 -0 -0 -0 -0 -0 -0 -0 -0 0 0 0 0 nan
nan -0 0 0 0 -0 0 -0 0 -0 -0 -0 -0 -1 -1 -0 -0 -0 -0 0 0 0 1 0 0 0 -0 1 1 -0 -0 -0 -0 0 0 0 -0 -0 -0 0 0 0 0 0 0 0 0 0 nan
nan -0 0 0 0 -0 -0 0 0 -0 0 0 -0 -2 -1 -0 -0 0 0 0 0 0 0 0 0 0 1 1 0 -0 -0 0 0 1 0 0 0 -0 0 0 0 0 0 0 0 0 0 0 nan
nan 0 0 -0 -0 -0 0 -0 0 -0 -0 -0 -0 -1 -0 0 0 0 0 0 0 0 1 1 1 1 0 0 -0 -0 -0 0 1 0 0 0 0 0 0 0 0 -0 0 0 0 -0 0 0 nan
nan 0 0 -0 -0 -0 -0 0 0 -0 0 -1 -0 -0 0 0 0 0 0 0 0 1 1 0 0 0 0 0 0 0 0 -0 0 0 0 0 0 0 0 -0 -0 0 0 -0 -0 0 0 -0 nan
nan -0 -0 -0 0 0 0 -0 -0 -1 1 -0 -1 0 1 0 -0 -0 0 0 1 1 1 0 0 0 -0 -0 0 0 0 0 -0 -0 -0 -0 -0 0 0 -0 -0 0 -0 -0 0 0 -0 0 nan
nan 0 -0 -0 -0 0 0 0 0 -0 0 -0 -0 -0 -0 1 0 -0 0 0 0 0 0 0 0 0 0 -0 0 -0 0 -0 -0 -0 -0 0 1 0 -0 -1 -0 1 1 -0 -0 -0 1 0 nan
nan -0 -0 -0 -0 -0 0 -0 0 0 0 -0 -0 -0 0 0 0 1 1 0 0 -0 0 0 0 0 0 0 0 0 0 0 0 0 1 0 -0 0 -0 0 -0 0 0 -0 -0 -0 1 0 nan
nan -0 -0 0 0 -0 -0 -0 0 0 0 0 -0 -0 0 0 0 0 0 0 0 0 0 0 0 0 0 0 0 0 0 0 0 0 0 -0 0 -0 -0 -0 -1 -0 -0 1 0 -0 0 1 nan
nan nan nan nan nan nan nan nan nan nan nan nan nan nan nan nan nan nan nan nan nan nan nan nan nan nan nan nan nan nan nan nan nan nan nan nan nan nan nan nan nan nan nan nan nan nan nan nan nan
Wind_Speed
10 8 6 6 3 3 4 6 4 5 2 6 13 7 10 15 5 4 16 11 10 13 20 22 23 22 20 19 18 18 17 17 17 16 14 14 15 14 16 18 17 19 15 17 14 16 19 20 20
12 10 7 3 4 2 5 4 5 7 6 15 17 15 5 4 1 10 15 14 11 15 16 20 22 21 20 18 18 17 17 17 17 17 15 14 17 16 19 18 17 16 13 15 16 18 22 20 19
12 13 8 4 3 6 4 4 9 9 14 15 9 13 9 6 9 19 12 14 14 15 14 14 22 21 19 17 16 16 17 17 18 17 16 16 17 18 20 19 15 14 14 16 18 19 20 19 17
8 5 4 3 7 7 5 5 4 8 13 6 13 7 8 7 14 14 14 13 14 14 15 13 21 20 18 16 15 16 17 18 18 18 18 17 19 19 20 21 16 15 16 18 18 18 17 17 16
7 3 2 3 6 5 3 8 8 9 11 10 19 7 16 8 10 14 15 13 13 15 16 15 19 16 17 16 15 14 17 19 20 20 20 19 19 20 21 20 18 16 18 18 18 18 17 17 15
5 3 1 4 5 4 6 15 4 5 14 12 9 7 8 15 11 13 16 15 14 15 17 16 16 16 16 15 14 14 17 19 20 22 21 20 21 22 21 20 20 18 19 19 19 18 17 16 14
4 3 4 4 3 4 5 6 3 1 5 7 14 7 7 12 15 16 16 13 15 15 17 19 19 17 16 14 14 14 17 19 20 22 23 22 21 22 21 21 21 21 21 20 18 17 16 15 13
3 3 2 5 5 7 5 6 8 12 8 11 9 2 8 19 16 17 18 16 15 14 15 17 20 20 19 17 14 14 16 19 21 22 23 23 22 22 23 23 22 23 23 20 18 16 14 13 12
4 2 4 4 6 3 8 8 7 9 12 14 6 11 9 12 7 15 17 19 19 17 15 18 20 22 22 19 18 16 16 18 21 23 24 23 22 24 26 24 27 26 24 21 18 15 14 12 12
3 3 7 5 3 1 9 8 17 9 15 15 15 13 13 13 6 14 19 20 21 22 22 20 22 23 25 23 20 16 14 17 21 24 25 25 26 27 28 25 23 27 25 21 18 15 13 12 11
3 4 4 4 10 14 12 17 14 8 11 11 16 23 22 18 14 11 20 19 22 22 22 21 22 22 22 24 21 16 13 17 22 25 27 30 30 26 26 25 24 24 25 22 19 16 13 12 11
3 6 11 6 16 16 12 18 20 22 23 29 33 28 25 20 15 13 12 21 23 23 24 24 22 23 20 24 17 13 8 14 24 29 31 33 33 29 29 30 28 27 28 25 20 16 13 13 12
4 4 13 21 18 19 20 18 19 25 30 32 34 38 30 26 20 16 15 13 19 21 21 22 23 25 26 31 28 29 27 24 27 35 34 35 34 31 31 32 29 28 27 25 21 17 15 13 11
4 10 16 18 24 20 19 22 17 23 20 26 30 33 33 23 22 19 16 16 13 19 20 20 24 26 28 28 26 30 31 31 33 35 37 38 35 31 29 35 33 31 27 24 21 18 15 13 11
10 8 11 15 11 7 10 10 13 30 26 31 34 34 35 31 21 22 19 19 16 17 21 20 22 23 24 26 27 30 31 34 31 31 43 40 35 30 34 36 36 31 25 24 21 19 17 15 12
3 1 4 4 3 8 9 9 9 18 21 27 33 34 36 33 26 25 21 20 19 18 21 21 22 24 24 23 25 27 39 38 31 42 40 40 32 27 31 32 32 27 26 25 22 20 18 15 15
2 3 4 7 7 5 6 11 5 15 17 24 27 30 32 31 27 24 22 21 19 18 22 17 22 25 25 23 20 25 30 37 40 36 33 32 32 26 25 28 30 29 28 26 23 20 18 18 17
2 4 5 9 5 9 14 19 18 21 16 23 27 27 28 29 26 19 25 23 25 21 22 17 18 25 20 18 16 28 33 34 34 30 32 31 31 32 32 31 28 30 29 26 23 22 21 20 18
4 7 12 15 15 11 9 13 20 20 15 14 25 29 28 29 28 23 24 23 22 24 23 21 22 21 22 23 20 24 37 37 34 29 27 31 32 29 26 29 29 28 27 26 24 23 22 21 17
9 13 17 16 11 6 10 19 18 17 9 19 23 24 27 29 27 22 24 24 20 19 22 21 23 21 24 21 23 22 28 31 30 30 32 35 37 30 31 33 31 29 28 26 24 25 23 21 20
12 12 14 9 10 7 9 10 6 4 4 12 16 17 13 16 20 19 15 17 23 25 23 23 21 21 23 25 25 30 30 31 35 30 31 32 31 31 32 33 32 30 27 26 25 24 24 24 23
11 7 15 12 8 5 3 6 4 5 6 5 12 14 16 14 17 16 17 19 21 24 25 23 20 23 28 24 27 34 36 38 33 31 30 30 33 32 33 31 30 30 28 25 23 24 25 25 24
7 4 6 8 12 9 10 5 4 5 6 6 8 20 18 16 15 16 12 15 21 21 25 25 20 24 30 28 26 33 32 26 27 30 27 27 29 30 31 30 29 28 27 27 24 24 22 22 22
8 8 11 8 5 5 2 5 2 3 6 9 9 17 17 13 7 8 10 16 19 16 26 25 20 19 27 29 19 31 25 25 26 24 24 23 24 25 27 29 27 25 23 23 21 21 22 24 27
2 4 3 3 2 3 4 4 3 13 16 13 10 3 10 9 9 7 3 5 9 14 20 24 18 22 24 20 14 15 21 27 24 22 21 23 21 20 21 24 23 21 24 25 28 27 32 28 27
4 2 2 4 3 3 1 5 5 19 10 10 17 13 15 17 18 17 23 17 28 26 31 30 26 30 25 16 11 15 11 10 10 9 11 12 16 21 30 25 20 20 24 27 27 28 28 29 28
1 3 2 3 3 2 3 3 5 19 13 18 15 20 22 27 21 22 27 30 36 33 35 31 26 18 9 14 1 5 3 8 12 12 10 15 17 19 22 25 26 25 25 26 27 27 34 36 32
5 5 2 1 3 2 5 3 6 11 13 14 13 18 23 24 25 23 25 27 26 21 20 21 22 20 13 10 10 11 8 10 12 15 15 17 18 20 24 24 26 25 23 28 27 26 29 31 25
1 3 5 3 3 2 2 3 7 7 10 12 12 21 24 25 26 27 27 24 20 17 16 15 13 11 8 5 4 3 2 4 6 8 9 10 11 10 14 20 27 29 29 30 34 32 33 35 29
4 4 4 2 3 3 2 3 6 9 8 13 19 19 20 24 25 26 26 26 24 22 20 19 18 16 13 11 7 6 5 4 2 3 5 6 7 9 11 13 17 20 23 24 24 25 29 31 36
Wind_Direction
169 164 166 133 89 62 245 241 247 304 287 218 261 310 270 266 242 226 150 160 161 171 172 179 182 182 182 181 179 179 179 177 179 176 170 167 165 164 153 144 144 147 152 146 140 136 129 127 124
161 160 142 74 102 157 261 225 221 240 242 330 332 331 264 249 203 157 164 174 173 168 172 184 186 187 185 184 183 184 184 185 184 181 178 174 168 166 155 153 160 159 153 149 138 131 130 127 127
157 162 138 133 169 197 232 238 227 268 305 311 314 324 293 156 145 158 173 167 163 176 180 187 191 191 190 189 189 191 191 191 190 187 186 179 176 170 162 164 167 165 156 145 139 133 133 134 131
149 136 111 136 207 254 212 265 276 325 321 41 342 319 326 217 173 169 165 180 173 170 177 180 189 192 195 197 196 198 198 194 194 192 189 185 182 175 170 170 170 165 158 152 145 141 140 141 139
127 120 129 213 229 249 249 260 295 307 305 298 317 285 308 230 224 178 170 166 168 170 172 176 184 197 206 202 205 201 196 195 196 195 192 188 187 179 178 180 178 170 162 158 151 147 144 144 143
128 135 129 230 223 255 269 273 294 268 300 338 348 308 296 325 215 204 176 161 167 164 170 175 183 193 200 202 203 204 194 195 195 196 195 193 192 183 184 188 184 174 168 163 156 152 149 149 147
123 104 210 214 248 250 235 292 266 341 320 325 345 333 295 342 225 210 213 198 190 180 172 175 185 190 197 202 197 199 198 198 198 196 197 195 196 193 193 192 187 177 174 167 161 156 153 152 151
136 98 238 219 195 267 275 298 294 312 306 314 334 318 328 329 267 216 215 220 213 202 207 194 199 202 194 187 189 196 205 205 201 199 199 197 198 196 194 193 192 180 176 171 168 163 159 157 157
116 100 240 224 187 247 328 6 299 309 295 309 273 328 0 352 254 230 220 218 214 208 219 219 215 212 194 195 188 192 197 211 208 201 199 199 195 196 195 198 185 181 179 176 172 168 165 162 161
148 176 218 222 167 295 306 298 302 312 313 292 298 278 293 333 311 255 255 233 210 210 214 214 213 224 211 199 185 183 193 201 209 205 198 196 195 201 202 186 182 183 182 178 177 173 171 171 171
201 218 241 263 281 295 288 291 290 292 286 259 297 300 306 321 329 308 256 242 243 225 215 222 226 223 224 213 196 180 184 204 212 210 205 199 202 206 199 184 192 185 186 182 182 181 181 181 178
278 265 258 287 286 287 278 284 272 264 262 279 285 285 290 294 298 301 299 259 237 230 219 220 219 222 224 197 206 179 225 254 214 215 208 202 202 205 200 187 193 193 189 186 186 186 191 193 193
235 260 279 282 284 284 283 267 267 270 279 279 279 276 276 275 279 277 294 288 249 246 232 222 224 225 231 234 236 229 269 267 258 215 212 210 204 207 204 192 196 197 194 189 189 193 200 204 206
290 297 290 286 274 271 268 268 265 260 261 272 273 272 277 275 266 275 276 272 258 242 242 239 235 234 235 238 238 237 260 250 244 212 214 210 205 208 212 198 199 202 192 191 195 201 203 208 219
292 299 295 261 255 252 261 263 241 263 261 259 266 267 272 274 263 254 260 264 255 254 246 252 248 237 237 241 249 249 221 233 240 226 207 206 207 210 215 206 204 204 196 196 198 202 205 208 212
279 301 312 289 191 254 165 275 249 263 254 250 252 258 264 269 270 259 249 260 251 241 252 248 249 243 246 257 265 256 222 226 233 231 207 211 205 204 208 206 211 202 201 200 202 206 213 213 218
267 256 261 300 228 252 179 284 236 273 260 252 253 258 260 264 273 268 245 244 249 243 245 257 242 240 251 262 260 252 230 224 230 225 232 207 195 196 204 209 217 201 200 203 206 211 215 219 219
266 287 255 269 279 295 288 273 286 295 262 253 253 255 257 259 260 272 246 254 245 240 238 248 245 250 244 241 255 249 219 224 223 213 226 217 199 196 202 207 208 201 204 207 211 217 220 222 225
265 270 276 275 274 296 279 288 288 297 289 252 252 254 257 260 256 257 249 256 239 231 232 242 247 240 238 210 219 206 201 197 197 193 217 205 210 203 210 207 207 209 210 214 215 218 219 219 217
254 271 282 291 272 202 285 286 280 282 249 236 242 257 265 257 248 248 254 242 236 235 234 237 222 232 221 231 219 204 193 196 192 197 197 209 201 208 211 212 213 216 215 215 215 215 217 219 217
261 266 271 264 312 249 282 279 323 327 233 254 248 251 268 256 250 254 241 221 219 220 228 224 235 237 220 213 212 219 219 203 193 190 204 209 209 212 218 216 215 215 215 215 216 217 219 221 220
279 251 249 289 322 312 43 290 268 334 306 281 278 255 256 269 246 257 241 225 211 224 230 222 232 237 220 222 227 225 210 207 191 190 199 207 214 215 220 216 217 217 218 219 220 223 224 221 224
249 299 281 279 282 287 246 256 269 352 335 308 294 269 248 249 247 239 223 219 221 220 222 219 220 257 239 223 224 217 209 196 186 188 198 204 210 212 211 210 211 216 223 225 227 234 240 247 257
279 291 269 253 234 250 158 217 250 337 307 294 299 293 246 214 250 216 207 209 222 230 214 211 220 217 208 189 199 183 187 184 179 186 202 209 215 218 223 221 219 220 228 232 233 242 249 246 249
277 283 315 319 209 249 321 266 303 311 302 272 270 222 162 161 150 125 111 190 208 199 197 204 193 181 168 160 201 154 147 170 173 182 195 205 206 216 222 225 227 229 230 240 250 258 251 242 251
288 260 226 292 338 314 336 333 329 318 48 94 75 71 109 91 82 71 89 93 113 124 128 135 132 139 144 115 108 128 133 139 150 159 190 210 233 235 229 237 238 232 254 252 242 238 247 253 257
79 245 193 271 235 326 330 329 290 349 29 66 67 66 70 71 71 59 69 71 87 82 87 90 99 102 121 199 308 188 340 236 214 205 191 208 248 241 238 247 252 255 256 238 245 253 260 258 258
229 344 273 239 340 30 343 30 353 347 33 40 54 61 67 82 85 78 79 80 85 83 84 99 110 123 121 120 110 125 182 177 180 188 230 264 268 255 244 246 244 260 267 243 244 257 264 258 257
234 275 234 235 169 57 26 23 341 11 27 59 61 63 76 85 86 87 87 86 87 87 89 94 102 113 131 140 140 155 165 166 192 221 245 256 267 265 256 252 255 260 260 254 260 263 265 264 261
213 270 273 107 9 48 85 32 11 50 55 60 81 81 84 92 89 90 90 92 91 90 91 90 94 100 101 103 108 113 123 150 163 225 243 261 272 274 275 269 262 257 257 257 262 264 264 266 263
Height
1508 1511 1512 1514 1524 1525 1525 1515 1503 1505 1504 1500 1501 1500 1499 1497 1497 1505 1493 1494 1497 1500 1502 1505 1509 1511 1513 1514 1517 1519 1521 1524 1527 1529 1531 1532 1534 1536 1538 1539 1541 1541 1541 1543 1544 1545 1546 1547 1548
1507 1509 1513 1515 1529 1531 1523 1506 1505 1503 1499 1500 1499 1496 1495 1493 1493 1492 1493 1493 1496 1499 1502 1505 1508 1512 1513 1515 1517 1518 1520 1523 1526 1529 1531 1533 1534 1536 1538 1540 1541 1542 1543 1544 1545 1547 1548 1549 1550
1507 1508 1512 1518 1529 1528 1520 1504 1499 1499 1502 1502 1500 1497 1493 1491 1492 1492 1492 1494 1493 1498 1501 1504 1507 1511 1513 1515 1517 1519 1520 1523 1525 1528 1531 1533 1535 1536 1538 1540 1541 1542 1544 1545 1547 1548 1550 1550 1551
1507 1511 1513 1519 1521 1515 1507 1501 1499 1501 1500 1500 1500 1498 1495 1492 1489 1491 1493 1493 1494 1495 1500 1503 1506 1509 1513 1515 1517 1519 1520 1522 1525 1528 1530 1532 1535 1536 1538 1540 1541 1543 1545 1546 1547 1549 1551 1552 1553
1507 1510 1517 1518 1515 1507 1502 1501 1502 1501 1501 1499 1500 1496 1494 1492 1492 1488 1489 1491 1493 1494 1498 1503 1505 1509 1511 1514 1516 1518 1519 1522 1524 1527 1530 1532 1535 1536 1538 1540 1542 1544 1546 1547 1548 1550 1551 1553 1554
1507 1509 1519 1518 1511 1504 1502 1500 1502 1502 1498 1500 1500 1497 1494 1493 1494 1495 1491 1489 1493 1494 1497 1500 1504 1507 1510 1513 1515 1517 1518 1520 1523 1526 1529 1532 1534 1536 1538 1540 1542 1544 1546 1548 1549 1550 1552 1553 1555
1506 1510 1515 1510 1509 1505 1499 1500 1500 1500 1499 1498 1500 1499 1495 1493 1493 1493 1496 1494 1493 1494 1494 1498 1502 1505 1508 1511 1513 1515 1517 1520 1522 1525 1528 1531 1534 1536 1538 1540 1542 1544 1547 1549 1551 1552 1553 1554 1555
1506 1510 1511 1507 1507 1503 1497 1497 1499 1500 1497 1497 1498 1498 1496 1493 1493 1493 1495 1496 1495 1494 1498 1496 1500 1504 1506 1508 1511 1514 1517 1519 1521 1523 1527 1530 1534 1536 1537 1539 1542 1544 1547 1549 1551 1552 1554 1555 1555
1506 1514 1514 1504 1504 1499 1497 1499 1495 1498 1497 1496 1497 1497 1497 1492 1492 1493 1493 1492 1494 1493 1494 1496 1497 1500 1504 1506 1507 1511 1514 1518 1520 1522 1525 1529 1533 1535 1537 1539 1540 1543 1546 1549 1551 1553 1554 1555 1556
1505 1513 1507 1500 1499 1500 1499 1500 1496 1496 1494 1490 1493 1492 1492 1492 1492 1491 1491 1490 1490 1490 1492 1494 1494 1498 1502 1505 1507 1509 1512 1515 1519 1521 1523 1527 1530 1533 1535 1539 1541 1542 1545 1548 1550 1552 1554 1555 1555
1504 1505 1501 1499 1498 1499 1497 1495 1496 1492 1489 1488 1487 1489 1488 1489 1490 1489 1488 1490 1489 1487 1490 1491 1493 1496 1500 1505 1507 1509 1509 1514 1517 1520 1522 1524 1528 1532 1534 1537 1541 1541 1544 1547 1549 1551 1553 1554 1555
1504 1501 1500 1498 1497 1496 1494 1493 1489 1489 1485 1487 1483 1485 1487 1488 1488 1488 1487 1487 1487 1489 1489 1489 1491 1493 1497 1502 1506 1508 1510 1511 1514 1517 1518 1521 1525 1529 1532 1535 1538 1539 1542 1545 1548 1551 1552 1553 1554
1501 1500 1500 1498 1494 1491 1491 1489 1487 1480 1482 1483 1481 1477 1480 1482 1484 1485 1484 1484 1484 1486 1488 1489 1490 1491 1494 1497 1501 1504 1506 1509 1510 1513 1515 1518 1522 1526 1530 1534 1536 1538 1541 1544 1546 1548 1550 1552 1553
1501 1500 1497 1494 1490 1487 1486 1482 1485 1476 1476 1475 1475 1473 1472 1475 1479 1480 1480 1480 1481 1483 1484 1486 1487 1488 1489 1492 1495 1499 1500 1505 1508 1506 1511 1515 1517 1522 1527 1530 1533 1537 1539 1542 1544 1546 1548 1550 1551
1500 1498 1495 1486 1483 1483 1480 1479 1474 1470 1471 1470 1468 1468 1466 1467 1472 1474 1476 1477 1478 1479 1480 1481 1481 1483 1485 1487 1490 1492 1493 1497 1502 1503 1506 1511 1513 1516 1523 1527 1531 1534 1538 1541 1543 1544 1546 1547 1549
1501 1500 1501 1482 1480 1477 1480 1472 1466 1465 1465 1462 1462 1461 1460 1460 1463 1466 1469 1471 1472 1473 1475 1475 1476 1477 1479 1480 1481 1483 1485 1488 1492 1500 1501 1504 1508 1514 1519 1524 1529 1532 1537 1539 1541 1542 1544 1545 1546
1502 1509 1501 1488 1477 1476 1475 1467 1459 1459 1458 1456 1455 1455 1453 1454 1455 1458 1462 1464 1466 1467 1468 1469 1470 1471 1474 1474 1474 1476 1478 1479 1484 1489 1498 1494 1504 1511 1517 1522 1529 1530 1534 1536 1538 1540 1541 1542 1544
1498 1502 1493 1489 1477 1472 1470 1459 1447 1448 1449 1447 1446 1447 1447 1447 1449 1451 1455 1458 1460 1461 1463 1464 1465 1468 1470 1469 1470 1470 1472 1476 1480 1482 1494 1497 1500 1508 1514 1518 1527 1528 1531 1532 1534 1536 1538 1540 1542
1497 1496 1492 1480 1471 1471 1461 1453 1443 1440 1440 1439 1440 1442 1440 1440 1444 1446 1447 1450 1453 1455 1457 1457 1461 1464 1466 1467 1468 1468 1469 1473 1480 1479 1490 1497 1502 1507 1512 1517 1524 1527 1527 1529 1532 1534 1535 1537 1540
1493 1489 1480 1471 1465 1468 1457 1447 1439 1435 1434 1434 1434 1436 1434 1436 1438 1440 1441 1442 1444 1447 1451 1456 1459 1460 1463 1463 1468 1471 1472 1475 1477 1482 1485 1496 1501 1504 1511 1516 1520 1522 1525 1527 1529 1531 1532 1535 1537
1482 1482 1478 1478 1463 1458 1459 1447 1438 1431 1430 1432 1433 1434 1433 1433 1433 1435 1435 1436 1440 1444 1449 1452 1455 1458 1460 1460 1466 1470 1471 1473 1475 1476 1486 1494 1498 1503 1508 1512 1515 1517 1521 1523 1526 1528 1529 1531 1533
1478 1469 1472 1465 1464 1461 1461 1449 1437 1436 1434 1431 1429 1430 1429 1428 1429 1431 1432 1434 1436 1441 1445 1449 1452 1455 1456 1459 1462 1464 1465 1469 1470 1475 1486 1492 1498 1502 1505 1507 1511 1514 1517 1520 1523 1526 1527 1528 1529
1472 1468 1468 1466 1466 1465 1455 1455 1434 1435 1430 1431 1427 1425 1426 1427 1428 1427 1428 1430 1434 1440 1442 1445 1448 1449 1453 1456 1458 1459 1461 1465 1469 1475 1483 1489 1494 1497 1500 1503 1506 1509 1513 1517 1520 1523 1524 1525 1525
1468 1467 1461 1460 1459 1454 1445 1447 1433 1439 1438 1432 1427 1424 1424 1426 1425 1427 1429 1431 1431 1434 1437 1441 1444 1448 1448 1453 1456 1453 1459 1464 1468 1475 1481 1487 1490 1493 1497 1501 1503 1507 1511 1513 1515 1518 1518 1519 1520
1468 1467 1469 1463 1454 1450 1445 1443 1441 1439 1433 1431 1427 1424 1424 1425 1428 1427 1426 1426 1429 1431 1434 1438 1442 1446 1449 1451 1456 1457 1457 1464 1470 1475 1481 1486 1489 1492 1495 1498 1501 1503 1507 1508 1511 1510 1514 1512 1513
1468 1467 1464 1454 1446 1447 1444 1446 1442 1440 1423 1423 1425 1426 1427 1425 1426 1425 1427 1428 1427 1430 1430 1433 1437 1441 1448 1451 1454 1458 1462 1465 1471 1476 1481 1484 1487 1490 1494 1496 1498 1500 1503 1504 1504 1505 1505 1506 1505
1461 1459 1463 1457 1451 1447 1448 1451 1450 1442 1429 1429 1432 1428 1428 1430 1430 1430 1431 1427 1426 1427 1429 1433 1440 1445 1449 1455 1459 1462 1464 1468 1473 1477 1479 1481 1484 1486 1489 1491 1493 1494 1495 1496 1498 1497 1498 1498 1497
1466 1463 1456 1457 1449 1447 1446 1447 1456 1451 1442 1437 1436 1436 1437 1438 1438 1437 1436 1434 1435 1438 1442 1445 1449 1454 1457 1460 1462 1463 1468 1469 1470 1475 1478 1479 1480 1482 1485 1487 1489 1490 1490 1490 1490 1489 1490 1491 1490
1463 1460 1456 1453 1455 1452 1456 1457 1465 1457 1451 1448 1446 1445 1445 1444 1445 1445 1446 1446 1447 1448 1450 1453 1455 1457 1460 1462 1463 1464 1465 1468 1471 1473 1474 1477 1478 1479 1480 1482 1484 1483 1484 1485 1485 1483 1483 1484 1485
1456 1453 1449 1454 1458 1461 1465 1467 1469 1463 1459 1455 1455 1456 1454 1452 1453 1454 1454 1455 1455 1456 1457 1458 1459 1461 1462 1463 1465 1466 1467 1469 1468 1471 1474 1476 1476 1478 1478 1479 1478 1477 1478 1478 1479 1477 1478 1477 1478